FW8987 Weather Reports


time (UTC)temp
C
wind
direction
speed
KPH
gust
KPH
rain 1hr
cm
rain 24hr
cm
rain mn
cm
humidity
%
barometer
mb
20240418173602 1 106 1.6 8.0 0.00 0.00 0.00 87 1016.1
20240418172602 1 156 1.6 4.8 0.00 0.00 0.00 87 1016.1
20240418171544 1 130 1.6 8.0 0.00 0.00 0.00 85 1016.2
20240418170603 1 110 1.6 4.8 0.00 0.00 0.00 84 1016.1
20240418165604 1 76 3.2 8.0 0.00 0.00 0.00 84 1016.1
20240418164546 1 66 3.2 12.9 0.00 0.00 0.00 84 1016.3
20240418163545 1 119 1.6 8.0 0.00 0.00 0.00 84 1016.3
20240418162545 1 52 4.8 12.9 0.00 0.00 0.00 85 1016.3
20240418161545 1 69 3.2 11.3 0.00 0.00 0.00 86 1016.3
20240418160546 1 85 1.6 8.0 0.00 0.00 0.00 87 1016.4
20240418155546 1 56 3.2 11.3 0.00 0.00 0.00 86 1016.4
20240418154607 1 125 1.6 8.0 0.00 0.00 0.00 87 1016.4
20240418153547 1 114 3.2 9.7 0.00 0.00 0.00 85 1016.4
20240418152547 1 90 3.2 11.3 0.00 0.00 0.00 82 1016.4
20240418151550 1 136 3.2 12.9 0.00 0.00 0.00 81 1016.5
20240418150533 1 80 4.8 12.9 0.00 0.00 0.00 79 1016.4
20240418145548 1 65 4.8 14.5 0.00 0.00 0.00 79 1016.6
20240418144549 2 59 3.2 12.9 0.00 0.00 0.00 79 1016.4
20240418143549 1 86 4.8 11.3 0.00 0.00 0.00 78 1016.5
20240418142551 2 65 4.8 11.3 0.00 0.00 0.00 77 1016.6
20240418141610 2 50 4.8 11.3 0.00 0.00 0.00 77 1016.5
20240418140553 2 30 6.4 11.3 0.00 0.00 0.00 76 1016.6
20240418135551 2 93 3.2 11.3 0.00 0.00 0.00 74 1016.6
20240418134552 2 62 4.8 12.9 0.00 0.00 0.00 74 1016.5
20240418133613 2 63 3.2 9.7 0.00 0.00 0.00 74 1016.6
20240418132552 2 104 3.2 11.3 0.00 0.00 0.00 76 1016.6
20240418131555 2 59 4.8 11.3 0.00 0.00 0.00 76 1016.7
20240418130553 2 88 4.8 11.3 0.00 0.00 0.00 75 1016.8
20240418125554 2 74 4.8 14.5 0.00 0.00 0.00 74 1016.8
20240418124554 2 81 3.2 9.7 0.00 0.00 0.00 75 1016.8
20240418123538 2 77 3.2 8.0 0.00 0.00 0.00 73 1016.9
20240418122615 2 106 1.6 11.3 0.00 0.00 0.00 73 1016.8
20240418121555 2 132 3.2 12.9 0.00 0.00 0.00 72 1016.9
20240418120554 2 83 3.2 8.0 0.00 0.00 0.00 73 1017.0
20240418115555 2 64 4.8 12.9 0.00 0.00 0.00 73 1017.1
20240418114554 1 62 4.8 11.3 0.00 0.00 0.00 73 1017.0
20240418113554 2 83 3.2 9.7 0.00 0.00 0.00 72 1017.2
20240418112616 1 42 4.8 9.7 0.00 0.00 0.00 71 1017.1
20240418111556 1 125 3.2 8.0 0.00 0.00 0.00 74 1017.1
20240418110616 1 165 1.6 8.0 0.00 0.00 0.00 73 1017.2
20240418105556 1 145 1.6 8.0 0.00 0.00 0.00 73 1017.1
20240418104617 1 121 3.2 8.0 0.00 0.00 0.00 74 1017.2
20240418103557 1 96 3.2 9.7 0.00 0.00 0.00 74 1017.2
20240418102558 0 122 3.2 8.0 0.00 0.00 0.00 75 1017.2
20240418101558 0 129 3.2 8.0 0.00 0.00 0.00 75 1017.3
20240418100559 0 46 3.2 9.7 0.00 0.00 0.00 74 1017.2
20240418095619 0 102 3.2 4.8 0.00 0.00 0.00 73 1017.2
20240418094559 1 103 4.8 9.7 0.00 0.00 0.00 73 1017.3
20240418093516 1 127 3.2 9.7 0.00 0.00 0.00 70 1017.2
20240418092537 1 93 3.2 8.0 0.00 0.00 0.00 68 1017.2
20240418091517 1 32 3.2 9.7 0.00 0.00 0.00 66 1017.3
20240418090517 1 72 3.2 11.3 0.00 0.00 0.00 66 1017.2
20240418085517 1 70 4.8 9.7 0.00 0.00 0.00 63 1017.2
20240418084518 1 53 4.8 11.3 0.00 0.00 0.00 61 1017.1
20240418083539 1 73 4.8 12.9 0.00 0.00 0.00 60 1017.1
20240418082519 1 95 3.2 9.7 0.00 0.00 0.00 60 1017.3
20240418081520 0 53 3.2 9.7 0.00 0.00 0.00 61 1017.1
20240418080520 0 88 4.8 11.3 0.00 0.00 0.00 62 1017.2
20240418075540 0 28 4.8 11.3 0.00 0.00 0.00 64 1017.2
20240418074601 0 45 4.8 14.5 0.00 0.00 0.00 67 1017.3
20240418073521 0 291 1.6 4.8 0.00 0.00 0.00 71 1017.3
20240418072541 0 43 3.2 9.7 0.00 0.00 0.00 72 1017.2
20240418071605 0 87 3.2 12.9 0.00 0.00 0.00 73 1017.2
20240418070523 0 343 3.2 8.0 0.00 0.00 0.00 74 1017.1
20240418065542 0 85 1.6 12.9 0.00 0.00 0.00 73 1017.2
20240418064523 0 44 4.8 12.9 0.00 0.00 0.00 74 1017.1
20240418063524 0 36 3.2 9.7 0.00 0.00 0.00 79 1017.1
20240418062524 0 190 1.6 11.3 0.00 0.00 0.00 80 1017.0
20240418061524 0 85 1.6 11.3 0.00 0.00 0.00 81 1017.0
20240418060525 0 61 3.2 8.0 0.00 0.00 0.00 82 1016.9
20240418055525 -1 200 1.6 4.8 0.00 0.00 0.00 84 1016.9
20240418054526 -1 211 1.6 3.2 0.00 0.00 0.00 84 1016.8
20240418053547 -1 223 1.6 4.8 0.00 0.00 0.00 85 1016.8
20240418052526 -1 242 0.0 4.8 0.00 0.00 0.00 86 1016.9
20240418051527 -1 232 0.0 3.2 0.00 0.00 0.00 86 1016.9
20240418050528 -1 216 0.0 4.8 0.00 0.00 0.00 87 1016.9
20240418045528 -1 203 1.6 4.8 0.00 0.00 0.00 87 1016.8
20240418044528 -2 223 1.6 4.8 0.00 0.00 0.00 88 1016.7
20240418043528 -2 238 1.6 4.8 0.00 0.00 0.00 88 1016.7
20240418042610 -2 231 1.6 4.8 0.00 0.00 0.00 88 1016.5
20240418041529 -2 231 1.6 4.8 0.00 0.00 0.00 89 1016.7
20240418040550 -2 226 0.0 3.2 0.00 0.00 0.00 90 1016.6
20240418035531 -2 226 0.0 3.2 0.00 0.00 0.00 91 1016.6
20240418034551 -2 208 0.0 1.6 0.00 0.00 0.00 90 1016.5
20240418033551 -2 220 1.6 3.2 0.00 0.00 0.00 90 1016.5
20240418032531 -2 219 1.6 3.2 0.00 0.00 0.00 90 1016.3
20240418031532 -2 220 1.6 3.2 0.00 0.00 0.00 89 1016.3
20240418030533 -2 228 1.6 3.2 0.00 0.00 0.00 90 1016.2
20240418025533 -2 214 0.0 1.6 0.00 0.00 0.00 89 1016.2
20240418024533 -2 267 0.0 4.8 0.00 0.00 0.00 89 1016.2
20240418023534 -2 239 0.0 4.8 0.00 0.00 0.00 89 1016.1
20240418022534 -2 214 1.6 1.6 0.00 0.00 0.00 89 1016.2
20240418021554 -2 208 0.0 1.6 0.00 0.00 0.00 90 1016.1
20240418020554 -2 218 0.0 1.6 0.00 0.00 0.00 91 1016.1
20240418015535 -2 200 0.0 1.6 0.00 0.00 0.00 91 1016.1
20240418014536 -2 208 0.0 1.6 0.00 0.00 0.00 92 1016.0
20240418013536 -2 208 0.0 1.6 0.00 0.00 0.00 92 1016.1
20240418012536 -2 0.0 1.6 0.00 0.00 0.00 91 1016.0
20240418011537 -2 201 0.0 1.6 0.00 0.00 0.00 91 1016.0
20240418010537 -2 0.0 1.6 0.00 0.00 0.00 90 1015.9
20240418005538 -1 190 0.0 1.6 0.00 0.00 0.00 89 1015.9
20240418004538 -1 175 0.0 3.2 0.00 0.00 0.00 89 1015.8
20240418003539 -1 166 0.0 1.6 0.00 0.00 0.00 90 1015.9
20240418002539 -1 152 0.0 1.6 0.00 0.00 0.00 89 1015.8
20240418001539 0 210 1.6 3.2 0.00 0.00 0.00 88 1016.0
20240418000540 0 42 1.6 9.7 0.00 0.00 0.00 87 1015.8
20240417235540 0 129 1.6 4.8 0.00 0.00 0.00 88 1015.9
20240417234601 0 117 1.6 4.8 0.00 0.00 0.00 86 1015.9
20240417233541 0 110 3.2 8.0 0.00 0.00 0.00 85 1015.8
20240417232541 0 114 1.6 8.0 0.00 0.00 0.00 84 1015.7
20240417231542 0 167 0.0 1.6 0.00 0.00 0.00 84 1015.9
20240417230542 0 115 1.6 4.8 0.00 0.00 0.00 84 1015.7
20240417225542 0 132 1.6 4.8 0.00 0.00 0.00 84 1015.8
20240417224543 0 164 1.6 4.8 0.00 0.00 0.00 84 1015.8
20240417223544 0 104 1.6 4.8 0.00 0.00 0.00 83 1015.8
20240417222544 0 238 0.0 1.6 0.00 0.00 0.00 84 1015.6
20240417221605 0 187 0.0 4.8 0.00 0.00 0.00 84 1015.6
20240417220529 0 119 1.6 9.7 0.00 0.00 0.00 84 1015.8
20240417215546 0 45 3.2 9.7 0.00 0.00 0.00 84 1015.6
20240417214546 0 91 1.6 8.0 0.00 0.00 0.00 84 1015.6
20240417213547 0 58 3.2 9.7 0.00 0.00 0.00 83 1015.6
20240417212547 0 89 1.6 8.0 0.00 0.00 0.00 83 1015.4
20240417211549 0 139 1.6 4.8 0.00 0.00 0.00 83 1015.2
20240417210531 0 49 4.8 11.3 0.00 0.00 0.00 83 1015.1
20240417205532 0 58 4.8 14.5 0.00 0.00 0.00 82 1015.1
20240417204553 0 22 4.8 16.1 0.00 0.00 0.00 82 1015.1
20240417203517 0 172 0.0 4.8 0.00 0.00 0.00 83 1014.9
20240417202518 0 112 3.2 14.5 0.00 0.00 0.00 83 1015.0
20240417201546 0 53 4.8 17.7 0.00 0.00 0.00 83 1014.9
20240417200551 0 56 4.8 11.3 0.00 0.00 0.00 84 1014.8
20240417195530 0 8 3.2 8.0 0.00 0.00 0.00 84 1014.7
20240417194532 0 83 1.6 11.3 0.00 0.00 0.00 84 1014.6
20240417193636 0 61 6.4 14.5 0.00 0.00 0.00 85 1014.6
20240417192548 0 63 1.6 4.8 0.00 0.00 0.00 86 1014.5
20240417191548 0 112 1.6 8.0 0.00 0.00 0.00 85 1014.5
20240417190516 0 94 4.8 11.3 0.00 0.00 0.00 85 1014.3
20240417185537 0 110 3.2 8.0 0.00 0.00 0.00 84 1014.4
20240417184537 0 117 3.2 8.0 0.00 0.00 0.00 84 1014.3
20240417183518 0 112 3.2 9.7 0.00 0.00 0.00 84 1014.3
20240417182518 0 125 1.6 8.0 0.00 0.00 0.00 86 1014.2
20240417181518 0 100 1.6 4.8 0.00 0.00 0.00 85 1014.0
20240417180519 0 153 1.6 4.8 0.00 0.00 0.00 85 1013.9
20240417175535 0 141 1.6 9.7 0.00 0.00 0.00 84 1013.8
20240417174537 1 118 1.6 8.0 0.00 0.00 0.00 84 1013.5